Powrót do katalogu

XINGCHI-1 02A

AktywnyNaukaSSO
NORAD 58496·PAYLOAD·🇨🇳 China

Wystrzelony Dec 4, 2023 z Jiuquan Satellite Launch Center

Loading…

Następne Przeloty (najbliższe 24 godziny)

TLE

ŚwieżeSource: Space-Track

Epoka: Sep 14, 2026, 15:46 UTC

1 58496U 23187A   26257.65748212  .00001067  00000-0  13303-3 0  9997
2 58496  97.9220 339.9381 0010854 206.5563 153.5096 14.84478546150392

Śledź XINGCHI-1 02A w czasie rzeczywistym z AllMySat

Download on the App Store